VOZ886 YSSY-YMML

Flight info

Callsign VOZ886
Flight time 1h 5m
Altitude 32000
Route MARUB7/34R WOL H65 LEECE Q29 ML
Aircraft B738/M-SDE2E3FGHIRWXY/LB1

Departure

Time 2026-05-01 10:09
Airport Sydney Kingsford Smith International Airport (YSSY)

Arrival

Time 2026-05-01 11:14
Airport Melbourne Airport (YMML)
Time Latitude Longitude Altitude Speed Heading
2026-05-01 09:48 -33.93635 151.17984 29 ft 0 kts 280°
2026-05-01 09:56 -33.93636 151.17993 29 ft 2 kts 280°
2026-05-01 09:56 -33.93639 151.18012 29 ft 2 kts 280°
2026-05-01 09:56 -33.93642 151.18031 29 ft 2 kts 258°
2026-05-01 09:57 -33.93634 151.18048 29 ft 2 kts 210°
2026-05-01 09:57 -33.93629 151.18051 29 ft 0 kts 179°
2026-05-01 09:58 -33.93630 151.18051 29 ft 1 kts 179°
2026-05-01 09:59 -33.93656 151.18051 29 ft 7 kts 179°
2026-05-01 09:59 -33.93708 151.18057 29 ft 9 kts 174°
2026-05-01 09:59 -33.93782 151.18015 29 ft 20 kts 248°
2026-05-01 09:59 -33.93827 151.17829 29 ft 18 kts 249°
2026-05-01 10:00 -33.93938 151.17788 28 ft 22 kts 170°
2026-05-01 10:00 -33.94116 151.17829 28 ft 29 kts 167°
2026-05-01 10:00 -33.94337 151.17892 29 ft 36 kts 167°
2026-05-01 10:00 -33.94593 151.17900 29 ft 37 kts 171°
2026-05-01 10:01 -33.94839 151.17966 29 ft 35 kts 166°
2026-05-01 10:01 -33.95046 151.18018 29 ft 26 kts 168°
2026-05-01 10:01 -33.95091 151.18165 29 ft 21 kts 80°
2026-05-01 10:01 -33.95063 151.18308 29 ft 0 kts 78°
2026-05-01 10:02 -33.95062 151.18312 29 ft 4 kts 78°
2026-05-01 10:02 -33.95043 151.18421 29 ft 20 kts 82°
2026-05-01 10:02 -33.95149 151.18585 29 ft 32 kts 139°
2026-05-01 10:03 -33.95351 151.18728 29 ft 34 kts 168°
2026-05-01 10:03 -33.95579 151.18786 29 ft 32 kts 168°
2026-05-01 10:03 -33.95788 151.18842 29 ft 30 kts 167°
2026-05-01 10:03 -33.95981 151.18891 29 ft 28 kts 169°
2026-05-01 10:04 -33.96165 151.18940 29 ft 26 kts 167°
2026-05-01 10:04 -33.96337 151.18989 29 ft 25 kts 168°
2026-05-01 10:04 -33.96500 151.19025 29 ft 23 kts 168°
2026-05-01 10:04 -33.96633 151.19058 29 ft 15 kts 167°
2026-05-01 10:05 -33.96730 151.19072 29 ft 14 kts 188°
2026-05-01 10:05 -33.96839 151.19070 29 ft 19 kts 171°
2026-05-01 10:05 -33.96958 151.19099 29 ft 11 kts 167°
2026-05-01 10:05 -33.96999 151.19111 29 ft 0 kts 166°
2026-05-01 10:06 -33.97030 151.19119 29 ft 8 kts 166°
2026-05-01 10:06 -33.97103 151.19146 29 ft 13 kts 148°
2026-05-01 10:06 -33.97116 151.19258 28 ft 10 kts 77°
2026-05-01 10:07 -33.97115 151.19263 28 ft 0 kts 76°
2026-05-01 10:07 -33.97109 151.19289 27 ft 8 kts 76°
2026-05-01 10:07 -33.97072 151.19364 25 ft 12 kts 23°
2026-05-01 10:08 -33.97026 151.19363 24 ft 0 kts 349°
2026-05-01 10:08 -33.96859 151.19323 23 ft 58 kts 347°
2026-05-01 10:09 -33.96250 151.19159 28 ft 119 kts 348°
2026-05-01 10:09 -33.95278 151.18917 28 ft 160 kts 351°
2026-05-01 10:09 -33.94184 151.18622 295 ft 166 kts 350°
2026-05-01 10:09 -33.93011 151.18331 624 ft 172 kts 353°
2026-05-01 10:10 -33.91835 151.18422 952 ft 172 kts 26°
2026-05-01 10:10 -33.91066 151.19441 1297 ft 174 kts 77°
2026-05-01 10:10 -33.91670 151.22229 2548 ft 179 kts 113°
2026-05-01 10:11 -33.92049 151.23119 2944 ft 181 kts 114°
2026-05-01 10:11 -33.92858 151.24976 3514 ft 199 kts 114°
2026-05-01 10:11 -33.93298 151.25988 3617 ft 212 kts 114°
2026-05-01 10:11 -33.93865 151.27694 3739 ft 228 kts 92°
2026-05-01 10:12 -33.93810 151.29659 3917 ft 245 kts 84°
2026-05-01 10:12 -33.93705 151.31759 4360 ft 257 kts 85°
2026-05-01 10:12 -33.93537 151.36089 5744 ft 259 kts 85°
2026-05-01 10:13 -33.93464 151.38283 6318 ft 266 kts 85°
2026-05-01 10:13 -33.93394 151.40521 6968 ft 269 kts 85°
2026-05-01 10:13 -33.93327 151.42786 7630 ft 272 kts 85°
2026-05-01 10:14 -33.93189 151.47383 8966 ft 278 kts 85°
2026-05-01 10:14 -33.93274 151.49735 9582 ft 287 kts 102°
2026-05-01 10:14 -33.94237 151.51853 10269 ft 296 kts 132°
2026-05-01 10:14 -33.95942 151.53270 10913 ft 304 kts 158°
2026-05-01 10:15 -33.98039 151.53642 11504 ft 313 kts 184°
2026-05-01 10:15 -34.00184 151.52884 11699 ft 335 kts 209°
2026-05-01 10:15 -34.02086 151.51146 11884 ft 354 kts 225°
2026-05-01 10:15 -34.03835 151.48950 12068 ft 372 kts 228°
2026-05-01 10:16 -34.05592 151.46563 12198 ft 390 kts 229°
2026-05-01 10:16 -34.07406 151.44053 12494 ft 401 kts 229°
2026-05-01 10:16 -34.11146 151.38934 13520 ft 410 kts 229°
2026-05-01 10:17 -34.13058 151.36358 14010 ft 414 kts 228°
2026-05-01 10:17 -34.16932 151.31185 15191 ft 416 kts 228°
2026-05-01 10:17 -34.18885 151.28584 15682 ft 420 kts 228°
2026-05-01 10:18 -34.22835 151.23325 16745 ft 425 kts 228°
2026-05-01 10:18 -34.24823 151.20676 17281 ft 427 kts 228°
2026-05-01 10:18 -34.26822 151.18009 17795 ft 430 kts 228°
2026-05-01 10:19 -34.28841 151.15313 18188 ft 435 kts 228°
2026-05-01 10:19 -34.30879 151.12589 18557 ft 440 kts 228°
2026-05-01 10:19 -34.32938 151.09835 18956 ft 443 kts 228°
2026-05-01 10:20 -34.37077 151.04291 19778 ft 446 kts 229°
2026-05-01 10:20 -34.39154 151.01506 20350 ft 442 kts 229°
2026-05-01 10:20 -34.41216 150.98740 20719 ft 444 kts 229°
2026-05-01 10:20 -34.43267 150.95984 21011 ft 449 kts 229°
2026-05-01 10:21 -34.45361 150.93167 21437 ft 449 kts 229°
2026-05-01 10:21 -34.49427 150.87679 23187 ft 432 kts 229°
2026-05-01 10:21 -34.51445 150.84960 23570 ft 436 kts 229°
2026-05-01 10:22 -34.55546 150.79443 24205 ft 443 kts 230°
2026-05-01 10:22 -34.59379 150.73558 24911 ft 446 kts 236°
2026-05-01 10:23 -34.61175 150.70484 25289 ft 447 kts 237°
2026-05-01 10:23 -34.64786 150.64285 25911 ft 452 kts 237°
2026-05-01 10:23 -34.66625 150.61171 26232 ft 455 kts 236°
2026-05-01 10:24 -34.70351 150.54916 26853 ft 459 kts 236°
2026-05-01 10:24 -34.74135 150.48607 27438 ft 464 kts 236°
2026-05-01 10:25 -34.77951 150.42234 28000 ft 469 kts 236°
2026-05-01 10:25 -34.81794 150.35798 28535 ft 472 kts 236°
2026-05-01 10:26 -34.83729 150.32554 28782 ft 475 kts 236°
2026-05-01 10:26 -34.85672 150.29292 29047 ft 477 kts 236°
2026-05-01 10:26 -34.89574 150.22732 29634 ft 479 kts 236°
2026-05-01 10:27 -34.93466 150.16180 30469 ft 476 kts 236°
2026-05-01 10:27 -34.97334 150.09653 31153 ft 473 kts 237°
2026-05-01 10:28 -34.99255 150.06407 31513 ft 471 kts 237°
2026-05-01 10:28 -35.03065 149.99961 32302 ft 466 kts 236°
2026-05-01 10:28 -35.04963 149.96746 32378 ft 469 kts 236°
2026-05-01 10:29 -35.10728 149.86975 32405 ft 474 kts 236°
2026-05-01 10:30 -35.18399 149.73948 32394 ft 471 kts 237°
2026-05-01 10:31 -35.26009 149.60966 32393 ft 471 kts 237°
2026-05-01 10:32 -35.31711 149.51208 32385 ft 469 kts 237°
2026-05-01 10:33 -35.39278 149.38217 32381 ft 468 kts 237°
2026-05-01 10:34 -35.44939 149.28465 32381 ft 469 kts 237°
2026-05-01 10:34 -35.48722 149.21933 32380 ft 470 kts 237°
2026-05-01 10:35 -35.54401 149.12105 32385 ft 471 kts 237°
2026-05-01 10:35 -35.58190 149.05533 32397 ft 472 kts 237°
2026-05-01 10:36 -35.63861 148.95672 32401 ft 470 kts 237°
2026-05-01 10:37 -35.67623 148.89116 32391 ft 468 kts 237°
2026-05-01 10:37 -35.73239 148.79303 32394 ft 468 kts 237°
2026-05-01 10:38 -35.76982 148.72750 32415 ft 467 kts 237°
2026-05-01 10:38 -35.80706 148.66215 32396 ft 465 kts 237°
2026-05-01 10:39 -35.84406 148.59709 32394 ft 463 kts 237°
2026-05-01 10:39 -35.88098 148.53209 32398 ft 463 kts 237°
2026-05-01 10:40 -35.91783 148.46678 32395 ft 464 kts 237°
2026-05-01 10:40 -35.95445 148.40159 32389 ft 461 kts 237°
2026-05-01 10:41 -35.99082 148.33671 32379 ft 459 kts 237°
2026-05-01 10:42 -36.04527 148.23943 32359 ft 455 kts 237°
2026-05-01 10:42 -36.08058 148.17622 32354 ft 437 kts 237°
2026-05-01 10:43 -36.11442 148.11551 32356 ft 429 kts 237°
2026-05-01 10:43 -36.14838 148.05464 32366 ft 430 kts 237°
2026-05-01 10:44 -36.18260 147.99337 32356 ft 436 kts 237°
2026-05-01 10:44 -36.21744 147.93084 32355 ft 446 kts 237°
2026-05-01 10:45 -36.25282 147.86724 32340 ft 446 kts 237°
2026-05-01 10:45 -36.28757 147.80464 32338 ft 439 kts 237°
2026-05-01 10:46 -36.32205 147.74241 32340 ft 437 kts 237°
2026-05-01 10:46 -36.35640 147.68026 32346 ft 437 kts 237°
2026-05-01 10:47 -36.39065 147.61808 32349 ft 436 kts 237°
2026-05-01 10:47 -36.42484 147.55589 32338 ft 436 kts 237°
2026-05-01 10:48 -36.45901 147.49362 32345 ft 436 kts 237°
2026-05-01 10:48 -36.49318 147.43126 32342 ft 437 kts 237°
2026-05-01 10:49 -36.52733 147.36882 32330 ft 437 kts 238°
2026-05-01 10:49 -36.56165 147.30592 32350 ft 444 kts 238°
2026-05-01 10:50 -36.59661 147.24174 32338 ft 450 kts 238°
2026-05-01 10:50 -36.63166 147.17730 32329 ft 449 kts 238°
2026-05-01 10:51 -36.66663 147.11287 32334 ft 449 kts 238°
2026-05-01 10:51 -36.70156 147.04840 32342 ft 449 kts 238°
2026-05-01 10:52 -36.73647 146.98393 32341 ft 448 kts 238°
2026-05-01 10:52 -36.77135 146.91946 32340 ft 448 kts 238°
2026-05-01 10:53 -36.80617 146.85499 32355 ft 448 kts 238°
2026-05-01 10:53 -36.84097 146.79037 32344 ft 449 kts 238°
2026-05-01 10:54 -36.87582 146.72556 32334 ft 450 kts 238°
2026-05-01 10:54 -36.91072 146.66054 32338 ft 451 kts 238°
2026-05-01 10:55 -36.94562 146.59535 32330 ft 452 kts 238°
2026-05-01 10:55 -36.96316 146.56254 31786 ft 459 kts 238°
2026-05-01 10:55 -36.98086 146.52941 31098 ft 457 kts 238°
2026-05-01 10:55 -36.99859 146.49619 30217 ft 460 kts 237°
2026-05-01 10:56 -37.01651 146.46260 29024 ft 468 kts 238°
2026-05-01 10:56 -37.03454 146.42875 28122 ft 468 kts 238°
2026-05-01 10:56 -37.05262 146.39478 27195 ft 470 kts 238°
2026-05-01 10:56 -37.07078 146.36064 26276 ft 472 kts 238°
2026-05-01 10:57 -37.08285 146.33791 25655 ft 474 kts 239°
2026-05-01 10:57 -37.10692 146.29252 24801 ft 469 kts 239°
2026-05-01 10:57 -37.12486 146.25862 24158 ft 465 kts 239°
2026-05-01 10:57 -37.13692 146.23578 23658 ft 464 kts 239°
2026-05-01 10:58 -37.15466 146.20216 22899 ft 461 kts 239°
2026-05-01 10:58 -37.17225 146.16882 22209 ft 457 kts 239°
2026-05-01 10:58 -37.19526 146.12514 21479 ft 448 kts 239°
2026-05-01 10:58 -37.20676 146.10328 21121 ft 443 kts 239°
2026-05-01 10:59 -37.22363 146.07120 20521 ft 438 kts 239°
2026-05-01 10:59 -37.24027 146.03951 19905 ft 434 kts 239°
2026-05-01 10:59 -37.25682 146.00796 19282 ft 430 kts 239°
2026-05-01 10:59 -37.27318 145.97673 18652 ft 427 kts 239°
2026-05-01 11:00 -37.28949 145.94561 17925 ft 424 kts 239°
2026-05-01 11:00 -37.30561 145.91482 17281 ft 420 kts 239°
2026-05-01 11:00 -37.32162 145.88429 16640 ft 416 kts 239°
2026-05-01 11:00 -37.33751 145.85406 16015 ft 413 kts 239°
2026-05-01 11:01 -37.35324 145.82413 15393 ft 409 kts 239°
2026-05-01 11:01 -37.36890 145.79430 14802 ft 407 kts 239°
2026-05-01 11:01 -37.38439 145.76474 14186 ft 405 kts 238°
2026-05-01 11:01 -37.39984 145.73523 13504 ft 403 kts 239°
2026-05-01 11:02 -37.41519 145.70586 12869 ft 400 kts 239°
2026-05-01 11:02 -37.43042 145.67674 12248 ft 397 kts 239°
2026-05-01 11:02 -37.44552 145.64783 11642 ft 394 kts 239°
2026-05-01 11:02 -37.46069 145.61947 11340 ft 383 kts 237°
2026-05-01 11:03 -37.47608 145.59299 11196 ft 369 kts 236°
2026-05-01 11:03 -37.49121 145.56756 11056 ft 357 kts 236°
2026-05-01 11:03 -37.50583 145.54294 10893 ft 346 kts 236°
2026-05-01 11:03 -37.51990 145.51895 10762 ft 335 kts 236°
2026-05-01 11:04 -37.53348 145.49561 10609 ft 326 kts 236°
2026-05-01 11:04 -37.54681 145.47265 10319 ft 323 kts 236°
2026-05-01 11:04 -37.55988 145.45009 10127 ft 315 kts 236°
2026-05-01 11:04 -37.57267 145.42803 9896 ft 310 kts 237°
2026-05-01 11:05 -37.58534 145.40614 9551 ft 308 kts 237°
2026-05-01 11:05 -37.59791 145.38441 9244 ft 306 kts 237°
2026-05-01 11:05 -37.61035 145.36289 9033 ft 300 kts 237°
2026-05-01 11:05 -37.62253 145.34181 8993 ft 294 kts 237°
2026-05-01 11:06 -37.63449 145.32109 8540 ft 297 kts 237°
2026-05-01 11:06 -37.64662 145.30002 8089 ft 301 kts 237°
2026-05-01 11:06 -37.65913 145.27832 7704 ft 303 kts 237°
2026-05-01 11:07 -37.68372 145.23566 7068 ft 302 kts 238°
2026-05-01 11:07 -37.69601 145.21431 6764 ft 300 kts 238°
2026-05-01 11:07 -37.70826 145.19301 6423 ft 299 kts 238°
2026-05-01 11:07 -37.72046 145.17181 6115 ft 297 kts 238°
2026-05-01 11:08 -37.73254 145.15077 5794 ft 295 kts 238°
2026-05-01 11:08 -37.74444 145.13006 5638 ft 288 kts 238°
2026-05-01 11:08 -37.76751 145.08986 5327 ft 287 kts 238°
2026-05-01 11:09 -37.77951 145.06885 5052 ft 301 kts 238°
2026-05-01 11:09 -37.79203 145.04693 4761 ft 314 kts 238°
2026-05-01 11:09 -37.80502 145.02422 4460 ft 319 kts 238°
2026-05-01 11:10 -37.82033 144.97422 4188 ft 302 kts 263°
2026-05-01 11:10 -37.82454 144.94862 4195 ft 286 kts 263°
2026-05-01 11:10 -37.82806 144.92435 4116 ft 276 kts 266°
2026-05-01 11:10 -37.82806 144.90116 4112 ft 253 kts 290°
2026-05-01 11:11 -37.82051 144.88242 4064 ft 230 kts 315°
2026-05-01 11:11 -37.80918 144.86963 3967 ft 210 kts 330°
2026-05-01 11:11 -37.79650 144.86226 3881 ft 194 kts 348°
2026-05-01 11:11 -37.78361 144.85923 3777 ft 186 kts 353°
2026-05-01 11:12 -37.77161 144.85655 3640 ft 161 kts 351°
2026-05-01 11:12 -37.76127 144.85396 3347 ft 146 kts 353°
2026-05-01 11:12 -37.75166 144.85247 2918 ft 135 kts 358°
2026-05-01 11:12 -37.74194 144.85173 2168 ft 142 kts
2026-05-01 11:13 -37.73157 144.85027 1288 ft 162 kts 351°
2026-05-01 11:13 -37.72039 144.84756 833 ft 158 kts 351°
2026-05-01 11:13 -37.71010 144.84556 724 ft 139 kts 353°
2026-05-01 11:13 -37.70119 144.84403 609 ft 125 kts 353°
2026-05-01 11:14 -37.69290 144.84233 475 ft 120 kts 353°
2026-05-01 11:14 -37.68466 144.84074 361 ft 117 kts 352°
2026-05-01 11:14 -37.67785 144.83950 359 ft 58 kts 352°
2026-05-01 11:14 -37.67439 144.83891 368 ft 47 kts 352°
2026-05-01 11:15 -37.67146 144.83834 381 ft 38 kts 354°
2026-05-01 11:15 -37.66929 144.83867 387 ft 20 kts 19°
2026-05-01 11:15 -37.66854 144.83906 390 ft 11 kts 22°
2026-05-01 11:15 -37.66840 144.83913 390 ft 0 kts 22°
2026-05-01 11:16 -37.66832 144.83917 390 ft 7 kts 22°
2026-05-01 11:16 -37.66750 144.83967 393 ft 15 kts 39°
2026-05-01 11:16 -37.66720 144.84083 394 ft 14 kts 96°
2026-05-01 11:16 -37.66772 144.84179 392 ft 14 kts 151°
2026-05-01 11:17 -37.66873 144.84206 388 ft 16 kts 171°
2026-05-01 11:17 -37.66989 144.84228 385 ft 18 kts 170°
2026-05-01 11:17 -37.67116 144.84256 382 ft 19 kts 170°
2026-05-01 11:17 -37.67207 144.84337 382 ft 16 kts 89°
2026-05-01 11:18 -37.67206 144.84476 384 ft 16 kts 102°
2026-05-01 11:18 -37.67190 144.84593 386 ft 12 kts 23°
2026-05-01 11:18 -37.67132 144.84585 387 ft 0 kts 351°